[[{"header":{"parameterUnit":"m.s-1","parameterCategory":2,"la1":30.2991,"la2":30.254,"lo1":-89.0895,"lo2":-89.0444,"dy":0.0017,"dx":0.0017,"nx":28,"ny":28,"refTime":"2024-04-10T21:00:00:Z","depth":"0","parameterNumber":2,"parameterNumberName":"U-component_of_CURRENTS"},"data":[0,0,0,0,0,0,0,0,0,0,0,0,0,0,0,0,0,0,0,0,0,0,0,0,0,0,0,0,0,0,0,0,0,0,0,0,0,0,0,0,0,0,0,0,0,0,0,0,0,0,0,0,0,0,0,0,0,0,-0.3074,-0.3074,0,-0.3005,-0.3003,-0.3002,-0.2907,-0.2906,-0.2905,-0.2904,-0.2738,-0.2734,-0.2731,0,0,0,0,0,0,0,0,0,0,0,0,0,-0.3037,-0.3038,-0.3074,-0.3074,-0.3074,-0.3005,-0.3003,-0.3002,-0.2907,-0.2906,-0.2905,-0.2904,-0.2739,-0.2735,-0.273,0,0,0,0,0,0,0,0,0,0,0,0,0,-0.3013,-0.3039,-0.3074,-0.3024,-0.3019,-0.3005,-0.3003,-0.3001,-0.2907,-0.2906,-0.2905,-0.2903,-0.274,-0.2735,-0.273,-0.2725,0,0,-0.2713,-0.2711,0,0,0,0,0,0,0,0,-0.3014,-0.3013,-0.3031,-0.3027,-0.3022,-0.2969,-0.293,-0.2906,-0.2908,-0.2942,-0.2904,-0.2903,-0.2812,-0.2801,-0.2782,-0.2717,-0.271,-0.2713,-0.271,-0.2707,-0.2706,0,0,0,0,0,0,0,-0.3016,-0.3015,-0.3039,-0.3031,-0.3026,-0.2975,-0.297,-0.2924,-0.2878,-0.2939,-0.2934,-0.2938,-0.2807,-0.2787,-0.2777,-0.2707,-0.2713,-0.2708,-0.2705,-0.2703,-0.2627,-0.2628,0,0,0,0,0,0,-0.3046,-0.3018,-0.3042,-0.3038,-0.3023,-0.2978,-0.2972,-0.2982,-0.2881,-0.2867,-0.2939,-0.2934,-0.2797,-0.2783,-0.2771,-0.2755,-0.2707,-0.2702,-0.2699,-0.2626,-0.2628,-0.2629,0,0,0,0,0,0,-0.3045,-0.3049,-0.3045,-0.3031,-0.3028,-0.2981,-0.2992,-0.2981,-0.296,-0.2883,-0.2866,-0.2931,-0.2795,-0.2778,-0.2741,-0.2748,-0.27,-0.2695,-0.2625,-0.2627,-0.2628,-0.2726,0,0,0,0,0,0,-0.3045,-0.3049,-0.3056,-0.3034,-0.303,-0.3046,-0.2994,-0.2981,-0.2969,-0.2961,-0.2871,-0.2853,-0.2793,-0.2749,-0.2736,-0.274,-0.2691,-0.2623,-0.2626,-0.2628,-0.2721,-0.2731,-0.2739,0,0,0,0,0,-0.3044,-0.3063,-0.3057,-0.306,-0.3045,-0.3048,-0.3041,-0.2997,-0.297,-0.297,-0.2913,-0.2856,-0.2753,-0.2746,-0.273,-0.2732,-0.2622,-0.2625,-0.2627,-0.2717,-0.2729,-0.2739,0,0,0,0,0,0,-0.3046,-0.3056,-0.3048,-0.3068,-0.3066,-0.3035,-0.3027,-0.3009,-0.2964,-0.2947,-0.2871,-0.2851,-0.2818,-0.2772,-0.2766,-0.272,-0.2679,-0.2678,-0.2753,-0.2763,-0.2772,-0.2767,-0.2686,0,0,0,0,0,-0.3057,-0.3068,-0.3075,-0.3086,-0.3091,-0.3063,-0.3055,-0.3034,-0.3001,-0.2978,-0.2922,-0.2863,-0.2819,-0.2789,-0.274,-0.2718,-0.2668,-0.271,-0.272,-0.2727,-0.2714,-0.2661,-0.2664,-0.2638,-0.2638,-0.2638,0,0,-0.3057,-0.3066,-0.3069,-0.3087,-0.3073,-0.3084,-0.3051,-0.305,-0.3047,-0.2968,-0.2935,-0.289,-0.2821,-0.2793,-0.2774,-0.2752,-0.2714,-0.2731,-0.2738,-0.2719,-0.2664,-0.2666,-0.2668,-0.264,-0.2639,-0.2639,0,0,-0.3064,-0.3078,-0.3088,-0.3099,-0.3103,-0.3096,-0.3106,-0.3088,-0.3067,-0.3054,-0.2991,-0.2956,-0.2892,-0.2842,-0.281,-0.2842,-0.2765,-0.2831,-0.2865,-0.2816,-0.2817,-0.2818,-0.2781,-0.2777,-0.2834,-0.2835,-0.2835,0,-0.3059,-0.3079,-0.309,-0.3108,-0.3113,-0.311,-0.3121,-0.3114,-0.3084,-0.3064,-0.3055,-0.2962,-0.2912,-0.2864,-0.2879,-0.2858,-0.2822,-0.2831,-0.2827,-0.2826,-0.2824,-0.2786,-0.278,-0.284,-0.2839,-0.2838,-0.2838,0,-0.307,-0.3092,-0.3101,-0.3123,-0.3137,-0.3147,-0.3157,-0.3157,-0.3142,-0.3121,-0.3083,-0.3029,-0.2966,-0.2961,-0.2928,-0.2896,-0.2872,-0.2846,-0.2798,-0.2833,-0.2791,-0.2783,-0.2847,-0.2845,-0.2843,-0.2842,0,0,-0.3017,-0.3094,-0.3088,-0.311,-0.3144,-0.3153,-0.3171,-0.3171,-0.3166,-0.3145,-0.3119,-0.3072,-0.3038,-0.3,-0.2958,-0.2927,-0.2905,-0.2891,-0.2886,-0.2853,-0.2803,-0.2672,-0.265,-0.2879,-0.2877,-0.2876,-0.2787,0,-0.3005,-0.3051,-0.3088,-0.3119,-0.3142,-0.3167,-0.3184,-0.3186,-0.3182,-0.3161,-0.3114,-0.3072,-0.3055,-0.3026,-0.2996,-0.2918,-0.2886,-0.2932,-0.2775,-0.277,-0.2646,-0.2636,-0.2426,-0.2317,-0.2779,-0.2777,-0.2776,0,-0.297,-0.3016,-0.3056,-0.3123,-0.3133,-0.3152,-0.317,-0.3187,-0.3175,-0.317,-0.3135,-0.3093,-0.3039,-0.3025,-0.2916,-0.2946,-0.2881,-0.2832,-0.2826,-0.2654,-0.2622,-0.2351,-0.2284,-0.2243,-0.2764,-0.2765,-0.2765,0,-0.2897,-0.2973,-0.3006,-0.303,-0.3114,-0.3124,-0.3152,-0.3168,-0.3166,-0.316,-0.3141,-0.3091,-0.3036,-0.2967,-0.286,-0.2889,-0.2731,-0.2752,-0.2574,-0.2566,-0.2325,-0.2296,-0.2186,-0.2667,-0.2667,-0.2667,-0.2668,0,-0.2854,-0.2871,-0.2978,-0.2996,-0.3007,-0.309,-0.3088,-0.3113,-0.3137,-0.3103,-0.3124,-0.3055,-0.3016,-0.2917,-0.285,-0.2664,-0.2712,-0.2559,-0.2519,-0.2357,-0.2333,-0.2235,-0.2254,-0.2664,-0.2665,-0.2665,-0.2666,0,-0.2743,-0.2832,-0.2857,-0.2951,-0.2971,-0.2966,-0.3024,-0.3029,-0.3082,-0.3038,-0.3028,-0.3004,-0.2856,-0.2794,-0.266,-0.2611,-0.2396,-0.2399,-0.2217,-0.2155,-0.1964,-0.1996,-0.1854,-0.1833,-0.2205,-0.2201,-0.2198,0,-0.2688,-0.2698,-0.2771,-0.2776,-0.2809,-0.2837,-0.2852,-0.2952,-0.2963,-0.2962,-0.2918,-0.2805,-0.2627,-0.2411,-0.2272,-0.2108,-0.2168,-0.1916,-0.1926,-0.1897,-0.1906,-0.1987,-0.199,-0.1667,-0.166,-0.1654,-0.1649,0,-0.2542,-0.2563,-0.2578,-0.2593,-0.2614,-0.2629,-0.2671,-0.2654,-0.2751,-0.2691,-0.2555,-0.2413,-0.223,-0.1913,-0.1771,-0.1695,-0.1833,-0.1785,-0.1781,-0.1481,-0.1531,-0.1509,-0.1823,-0.1594,-0.16,-0.1604,-0.1607,-0.1609,-0.2369,-0.2341,-0.2356,-0.2344,-0.2379,-0.2345,-0.2235,-0.2281,-0.2177,-0.1962,-0.2087,-0.1683,-0.16,-0.1295,-0.1302,-0.1183,-0.136,-0.1165,-0.1213,-0.1307,-0.1252,-0.1454,-0.1166,-0.1169,-0.1171,-0.1174,-0.1176,0,-0.2128,-0.2126,-0.2111,-0.2065,-0.1987,-0.2094,-0.2048,-0.1866,-0.1604,-0.141,-0.1203,-0.0738,-0.0588,-0.06,-0.0559,-0.0596,-0.0716,-0.0673,-0.0738,-0.0779,-0.0929,-0.0868,-0.0468,-0.0468,-0.0468,-0.0468,-0.0468,-0.0468,-0.1995,-0.1896,-0.1903,-0.1673,-0.1633,-0.1407,-0.1298,-0.1064,-0.0843,-0.0252,0.018,0.0343,0.0255,0.0034,-0.0129,-0.0224,-0.038,-0.035,-0.0536,-0.0619,-0.0671,-0.0721,-0.0668,-0.0232,-0.0232,-0.0322,-0.0322,-0.0322]},{"header":{"parameterUnit":"m.s-1","parameterCategory":2,"la1":30.2991,"la2":30.254,"lo1":-89.0895,"lo2":-89.0444,"dy":0.0017,"dx":0.0017,"nx":28,"ny":28,"refTime":"2024-04-10T21:00:00:Z","depth":"0","parameterNumber":3,"parameterNumberName":"V-component_of_CURRENTS"},"data":[0,0,0,0,0,0,0,0,0,0,0,0,0,0,0,0,0,0,0,0,0,0,0,0,0,0,0,0,0,0,0,0,0,0,0,0,0,0,0,0,0,0,0,0,0,0,0,0,0,0,0,0,0,0,0,0,0,0,-0.0373,-0.0371,0,-0.0225,-0.0223,-0.0222,-0.016,-0.016,-0.016,-0.016,-0.0011,-0.0007,-0.0003,0,0,0,0,0,0,0,0,0,0,0,0,0,-0.0547,-0.0545,-0.0373,-0.0371,-0.0369,-0.0225,-0.0223,-0.0222,-0.016,-0.016,-0.016,-0.016,-0.0012,-0.0008,-0.0003,0,0,0,0,0,0,0,0,0,0,0,0,0,-0.0445,-0.0544,-0.0373,-0.0319,-0.0312,-0.0226,-0.0223,-0.0221,-0.016,-0.016,-0.016,-0.016,-0.0014,-0.0008,-0.0002,0.0037,0,0,0.0016,0.0019,0,0,0,0,0,0,0,0,-0.0451,-0.0439,-0.0329,-0.0322,-0.0315,-0.0209,-0.023,-0.0134,-0.016,-0.022,-0.016,-0.016,-0.0075,-0.0064,-0.004,0.0044,0.005,0.0017,0.002,0.0023,0.0025,0,0,0,0,0,0,0,-0.0458,-0.0444,-0.0317,-0.0327,-0.0318,-0.0283,-0.0269,-0.0211,-0.0151,-0.0215,-0.0209,-0.0189,-0.0072,-0.0046,-0.0036,0.0053,0.0017,0.0022,0.0026,0.0028,0.02,0.02,0,0,0,0,0,0,-0.0474,-0.0451,-0.0321,-0.0312,-0.0382,-0.028,-0.0264,-0.0245,-0.0151,-0.0136,-0.0189,-0.0187,-0.0056,-0.0043,-0.003,0.0034,0.0023,0.0029,0.0032,0.0199,0.02,0.0201,0,0,0,0,0,0,-0.0478,-0.0464,-0.0327,-0.0377,-0.0356,-0.0277,-0.0255,-0.0242,-0.0215,-0.0131,-0.0117,-0.0176,-0.0056,-0.0039,0.003,0.004,0.0031,0.0037,0.0198,0.0199,0.02,0.0155,0,0,0,0,0,0,-0.0484,-0.0466,-0.0465,-0.0378,-0.0354,-0.0281,-0.0254,-0.0239,-0.0201,-0.0197,-0.0115,-0.0101,-0.0054,0.002,0.0036,0.0048,0.0042,0.0196,0.0198,0.02,0.0155,0.0155,0.0154,0,0,0,0,0,-0.0491,-0.0488,-0.0466,-0.045,-0.0352,-0.0281,-0.0266,-0.0211,-0.0201,-0.0189,-0.0127,-0.0104,0.0042,0.0026,0.0044,0.0058,0.0195,0.0198,0.02,0.0155,0.0155,0.0154,0,0,0,0,0,0,-0.0568,-0.0478,-0.0453,-0.0425,-0.036,-0.0269,-0.0256,-0.0216,-0.0158,-0.0158,-0.0086,-0.0067,-0.0007,0.0036,0.0016,0.0113,0.0121,0.0126,0.0081,0.0081,0.008,0.0061,0.0047,0,0,0,0,0,-0.0583,-0.0557,-0.0466,-0.0447,-0.0418,-0.0339,-0.0307,-0.0266,-0.0198,-0.0174,-0.0111,-0.0046,0.0017,0.0055,0.0111,0.0171,0.0214,0.019,0.019,0.0189,0.0186,0.0261,0.0266,0.0208,0.0208,0.0208,0,0,-0.0609,-0.0556,-0.0544,-0.0461,-0.0412,-0.037,-0.0321,-0.0275,-0.0237,-0.0166,-0.0107,-0.0049,0.0031,0.0094,0.0125,0.0132,0.0231,0.0191,0.019,0.0188,0.0264,0.0269,0.0274,0.0209,0.0209,0.0209,0,0,-0.0649,-0.0602,-0.0594,-0.054,-0.0463,-0.0404,-0.0393,-0.0301,-0.026,-0.019,-0.0132,-0.0063,0.003,0.0098,0.0141,0.0174,0.022,0.0186,0.0177,0.0249,0.0254,0.0259,0.0327,0.0338,0.0192,0.0192,0.0192,0,-0.069,-0.0658,-0.0582,-0.0555,-0.0516,-0.0424,-0.0403,-0.0339,-0.0236,-0.0193,-0.0182,-0.0026,0.0034,0.013,0.0139,0.0172,0.0215,0.017,0.0247,0.0253,0.0259,0.0327,0.034,0.019,0.0191,0.0191,0.0191,0,-0.0711,-0.0687,-0.0678,-0.061,-0.0557,-0.0525,-0.0422,-0.0367,-0.0308,-0.0236,-0.0138,-0.0045,0.0049,0.008,0.012,0.0199,0.0217,0.0229,0.0242,0.0261,0.0333,0.0347,0.0188,0.0188,0.0189,0.0189,0,0,-0.0801,-0.0714,-0.0713,-0.0692,-0.0584,-0.0544,-0.0471,-0.0371,-0.0319,-0.0223,-0.0146,-0.0038,0.0016,0.0069,0.0137,0.0202,0.0282,0.0226,0.023,0.0281,0.0439,0.0486,0.0507,0.0303,0.0305,0.0307,0.0473,0,-0.0847,-0.0833,-0.0755,-0.0727,-0.0711,-0.0591,-0.0527,-0.0423,-0.0325,-0.0224,-0.011,-0.002,0.0014,0.0061,0.0132,0.025,0.0317,0.0235,0.0423,0.0429,0.0459,0.0524,0.0589,0.0746,0.0487,0.049,0.0492,0,-0.0894,-0.0878,-0.0873,-0.0785,-0.0762,-0.072,-0.0594,-0.0521,-0.0353,-0.0275,-0.0159,-0.0056,0.0076,0.0088,0.0288,0.0232,0.0324,0.0406,0.0415,0.0484,0.0504,0.0686,0.0782,0.0861,0.0514,0.0513,0.0511,0,-0.1012,-0.0952,-0.0956,-0.0928,-0.0816,-0.0777,-0.0706,-0.0551,-0.0476,-0.0305,-0.0225,-0.0062,0.0044,0.0169,0.0352,0.032,0.057,0.0552,0.0683,0.0688,0.0794,0.0804,0.098,0.068,0.068,0.068,0.0679,0,-0.1093,-0.1091,-0.1015,-0.1019,-0.0998,-0.088,-0.0817,-0.0713,-0.0555,-0.0437,-0.0272,-0.0127,0.0067,0.025,0.0368,0.0591,0.059,0.0701,0.0744,0.0781,0.0787,0.09,0.0869,0.0686,0.0685,0.0683,0.0682,0,-0.1214,-0.117,-0.1166,-0.1083,-0.1058,-0.1044,-0.0906,-0.0843,-0.0684,-0.052,-0.0462,-0.0167,0.0098,0.0294,0.0548,0.0637,0.0882,0.0892,0.0923,0.0965,0.1126,0.1088,0.123,0.133,0.1057,0.1059,0.1061,0,-0.1271,-0.1288,-0.1243,-0.1241,-0.1204,-0.1157,-0.1108,-0.0945,-0.084,-0.0513,-0.0421,-0.0116,0.0183,0.0569,0.0763,0.0999,0.1023,0.1165,0.1111,0.1169,0.1158,0.1089,0.1158,0.1242,0.1245,0.1248,0.125,0,-0.1366,-0.135,-0.1346,-0.1362,-0.1333,-0.1273,-0.117,-0.1099,-0.0846,-0.0646,-0.0279,-0.0008,0.0412,0.0791,0.1063,0.1169,0.1208,0.1225,0.1298,0.1331,0.1258,0.1364,0.1084,0.1274,0.1272,0.127,0.1269,0.1268,-0.142,-0.1452,-0.1451,-0.1446,-0.1422,-0.1336,-0.1231,-0.1051,-0.083,-0.0385,-0.019,0.0345,0.081,0.1245,0.1331,0.1503,0.1405,0.1572,0.1528,0.146,0.1533,0.1295,0.1514,0.1513,0.1512,0.1511,0.151,0,-0.1479,-0.1496,-0.1519,-0.1483,-0.1433,-0.1396,-0.1214,-0.1004,-0.0668,-0.0238,0.0169,0.0902,0.1278,0.1579,0.179,0.1838,0.1806,0.1849,0.1784,0.1852,0.1689,0.1676,0.1925,0.1925,0.1925,0.1925,0.1925,0.1925,-0.1505,-0.1545,-0.1552,-0.1476,-0.1422,-0.1247,-0.1103,-0.0761,-0.0394,0.0342,0.0906,0.1336,0.1721,0.1798,0.1987,0.2025,0.2085,0.2013,0.2063,0.1944,0.1915,0.1887,0.1875,0.2162,0.2162,0.2283,0.2284,0.2285]}],[{"header":{"parameterUnit":"m.s-1","parameterCategory":2,"la1":30.2991,"la2":30.254,"lo1":-89.0895,"lo2":-89.0444,"dy":0.0017,"dx":0.0017,"nx":28,"ny":28,"refTime":"2024-04-10T21:00:00:Z","depth":"2","parameterNumber":2,"parameterNumberName":"U-component_of_CURRENTS"},"data":[0,0,0,0,0,0,0,0,0,0,0,0,0,0,0,0,0,0,0,0,0,0,0,0,0,0,0,0,0,0,0,0,0,0,0,0,0,0,0,0,0,0,0,0,0,0,0,0,0,0,0,0,0,0,0,0,0,0,-0.2638,-0.2638,0,-0.2605,-0.2604,-0.2603,-0.2543,-0.2543,-0.2542,-0.2542,-0.2427,-0.2424,-0.2422,0,0,0,0,0,0,0,0,0,0,0,0,0,-0.2581,-0.2583,-0.2638,-0.2638,-0.2639,-0.2605,-0.2604,-0.2603,-0.2543,-0.2543,-0.2542,-0.2541,-0.2428,-0.2425,-0.2422,0,0,0,0,0,0,0,0,0,0,0,0,0,-0.2577,-0.2583,-0.2638,-0.261,-0.2607,-0.2605,-0.2604,-0.2602,-0.2543,-0.2543,-0.2542,-0.2541,-0.2429,-0.2425,-0.2421,-0.2414,0,0,-0.241,-0.2408,0,0,0,0,0,0,0,0,-0.2577,-0.2578,-0.2614,-0.2612,-0.2609,-0.2583,-0.2542,-0.2537,-0.2544,-0.2561,-0.2542,-0.2541,-0.2477,-0.2469,-0.2456,-0.2408,-0.2403,-0.2409,-0.2407,-0.2405,-0.2404,0,0,0,0,0,0,0,-0.2578,-0.2579,-0.2618,-0.2614,-0.2611,-0.2575,-0.2574,-0.254,-0.2517,-0.2559,-0.2556,-0.2563,-0.2474,-0.246,-0.2453,-0.2402,-0.2409,-0.2406,-0.2404,-0.2402,-0.2356,-0.2358,0,0,0,0,0,0,-0.26,-0.258,-0.2619,-0.2618,-0.2598,-0.2578,-0.2576,-0.2587,-0.2519,-0.251,-0.2564,-0.2561,-0.2467,-0.2457,-0.2448,-0.2456,-0.2405,-0.2402,-0.2399,-0.2355,-0.2357,-0.2358,0,0,0,0,0,0,-0.2599,-0.2604,-0.2621,-0.2603,-0.2603,-0.2581,-0.2593,-0.2587,-0.2578,-0.2525,-0.2513,-0.2564,-0.2466,-0.2454,-0.2433,-0.245,-0.24,-0.2396,-0.2354,-0.2356,-0.2357,-0.2458,0,0,0,0,0,0,-0.2597,-0.2604,-0.2612,-0.2605,-0.2605,-0.2632,-0.2594,-0.2587,-0.2587,-0.2582,-0.2521,-0.2509,-0.2464,-0.244,-0.243,-0.2444,-0.2393,-0.2353,-0.2355,-0.2357,-0.2454,-0.2463,-0.2472,0,0,0,0,0,-0.2595,-0.2613,-0.2612,-0.2617,-0.262,-0.2634,-0.263,-0.2606,-0.2588,-0.2593,-0.2555,-0.2511,-0.2445,-0.2438,-0.2426,-0.244,-0.2352,-0.2354,-0.2357,-0.245,-0.2461,-0.2471,0,0,0,0,0,0,-0.2585,-0.2609,-0.2608,-0.263,-0.2639,-0.2626,-0.2625,-0.2617,-0.2591,-0.258,-0.2525,-0.2511,-0.2496,-0.2459,-0.2452,-0.2433,-0.2391,-0.2392,-0.2466,-0.2477,-0.2485,-0.2475,-0.239,0,0,0,0,0,-0.2593,-0.261,-0.2629,-0.2643,-0.2653,-0.2642,-0.2642,-0.2634,-0.2617,-0.2604,-0.2567,-0.2527,-0.2497,-0.2481,-0.2444,-0.2438,-0.2392,-0.2439,-0.2448,-0.2456,-0.2441,-0.2402,-0.2405,-0.2366,-0.2366,-0.2366,0,0,-0.259,-0.2606,-0.2614,-0.2642,-0.264,-0.2661,-0.2638,-0.2648,-0.2658,-0.2595,-0.2586,-0.2552,-0.2501,-0.2491,-0.2482,-0.2464,-0.2448,-0.2459,-0.2467,-0.2446,-0.2405,-0.2408,-0.2411,-0.2368,-0.2367,-0.2367,0,0,-0.2595,-0.2613,-0.263,-0.265,-0.267,-0.2672,-0.2685,-0.2687,-0.2679,-0.2681,-0.2635,-0.2617,-0.2575,-0.2544,-0.2522,-0.2559,-0.2493,-0.2552,-0.2591,-0.2555,-0.2558,-0.2559,-0.2525,-0.2523,-0.2561,-0.2562,-0.2562,0,-0.2587,-0.2617,-0.2635,-0.2662,-0.2679,-0.2686,-0.2709,-0.2711,-0.2705,-0.2698,-0.2689,-0.2631,-0.2598,-0.2575,-0.2592,-0.2577,-0.2544,-0.2558,-0.2566,-0.2567,-0.2567,-0.2531,-0.2527,-0.2567,-0.2566,-0.2566,-0.2565,0,-0.2606,-0.2635,-0.2649,-0.2687,-0.271,-0.2731,-0.2756,-0.2766,-0.2764,-0.2758,-0.2742,-0.2704,-0.2664,-0.2666,-0.264,-0.2628,-0.2601,-0.258,-0.254,-0.2577,-0.2537,-0.2531,-0.2574,-0.2572,-0.2571,-0.2569,0,0,-0.255,-0.2645,-0.2641,-0.2673,-0.2726,-0.2743,-0.2776,-0.2796,-0.2803,-0.28,-0.2792,-0.2768,-0.2742,-0.2715,-0.2685,-0.2666,-0.2656,-0.2632,-0.2627,-0.2598,-0.2575,-0.2439,-0.2419,-0.2638,-0.2637,-0.2637,-0.2555,0,-0.2546,-0.2609,-0.2654,-0.2702,-0.2737,-0.2774,-0.2803,-0.2824,-0.2833,-0.283,-0.28,-0.278,-0.2764,-0.2747,-0.2728,-0.2664,-0.2641,-0.2679,-0.2541,-0.2537,-0.2411,-0.2407,-0.2193,-0.2091,-0.2549,-0.2548,-0.2547,0,-0.2525,-0.2578,-0.2636,-0.272,-0.2735,-0.2765,-0.2805,-0.2835,-0.2847,-0.2851,-0.2835,-0.2807,-0.2776,-0.2758,-0.2673,-0.2697,-0.2641,-0.2598,-0.2594,-0.2417,-0.2387,-0.2123,-0.2062,-0.2536,-0.2537,-0.2538,-0.2538,0,-0.2456,-0.2549,-0.2596,-0.2627,-0.2728,-0.2748,-0.2787,-0.2825,-0.2837,-0.2853,-0.2845,-0.2817,-0.2777,-0.2721,-0.2629,-0.2655,-0.2517,-0.254,-0.2364,-0.2355,-0.2116,-0.2085,-0.247,-0.247,-0.247,-0.247,-0.247,0,-0.2424,-0.2453,-0.257,-0.2595,-0.2623,-0.2717,-0.2735,-0.2772,-0.2815,-0.2798,-0.2837,-0.2785,-0.2763,-0.268,-0.2621,-0.2448,-0.2504,-0.2348,-0.2313,-0.2147,-0.2121,-0.2457,-0.2457,-0.2467,-0.2468,-0.2468,-0.2469,0,-0.2323,-0.2417,-0.2458,-0.2565,-0.2591,-0.26,-0.268,-0.2696,-0.2764,-0.2739,-0.2739,-0.2743,-0.2622,-0.2571,-0.2458,-0.2401,-0.2281,-0.2205,-0.2011,-0.1952,-0.2158,-0.2164,-0.2024,-0.2018,-0.2013,-0.2009,-0.2005,0,-0.2277,-0.2296,-0.2384,-0.2395,-0.2436,-0.2482,-0.251,-0.2625,-0.2643,-0.2672,-0.2636,-0.256,-0.2405,-0.2213,-0.2087,-0.1935,-0.2082,-0.1721,-0.1727,-0.2126,-0.2107,-0.2121,-0.2133,-0.1468,-0.1461,-0.1455,-0.145,0,-0.215,-0.2178,-0.2203,-0.2228,-0.2261,-0.229,-0.2346,-0.234,-0.245,-0.241,-0.231,-0.2194,-0.2036,-0.1741,-0.16,-0.1524,-0.1736,-0.1589,-0.202,-0.1614,-0.1595,-0.158,-0.1611,-0.1395,-0.14,-0.1404,-0.1407,-0.141,-0.2001,-0.1981,-0.2006,-0.2008,-0.205,-0.2029,-0.1942,-0.1997,-0.1921,-0.175,-0.188,-0.155,-0.1639,-0.1152,-0.1144,-0.1132,-0.1278,-0.1266,-0.1288,-0.1317,-0.1266,-0.1239,-0.0963,-0.0966,-0.0969,-0.0971,-0.0973,0,-0.1789,-0.1793,-0.1788,-0.1759,-0.1696,-0.18,-0.1773,-0.1613,-0.1392,-0.1247,-0.1082,-0.0845,-0.0652,-0.0705,-0.056,-0.0659,-0.0717,-0.0691,-0.0744,-0.0795,-0.0841,-0.0773,-0.0336,-0.0335,-0.0334,-0.0333,0,0,-0.1674,-0.1592,-0.1598,-0.14,-0.1375,-0.118,-0.1089,-0.0886,-0.0703,-0.0358,-0.0114,-0.015,-0.0348,-0.0161,-0.0331,-0.0238,-0.0477,-0.0225,-0.0711,-0.0793,-0.0836,-0.1136,-0.108,0,0,0,0,0]},{"header":{"parameterUnit":"m.s-1","parameterCategory":2,"la1":30.2991,"la2":30.254,"lo1":-89.0895,"lo2":-89.0444,"dy":0.0017,"dx":0.0017,"nx":28,"ny":28,"refTime":"2024-04-10T21:00:00:Z","depth":"2","parameterNumber":3,"parameterNumberName":"V-component_of_CURRENTS"},"data":[0,0,0,0,0,0,0,0,0,0,0,0,0,0,0,0,0,0,0,0,0,0,0,0,0,0,0,0,0,0,0,0,0,0,0,0,0,0,0,0,0,0,0,0,0,0,0,0,0,0,0,0,0,0,0,0,0,0,-0.0269,-0.0268,0,-0.0148,-0.0147,-0.0146,-0.009,-0.009,-0.009,-0.0089,0.004,0.0043,0.0046,0,0,0,0,0,0,0,0,0,0,0,0,0,-0.0396,-0.0394,-0.027,-0.0268,-0.0266,-0.0148,-0.0147,-0.0145,-0.009,-0.009,-0.0089,-0.0089,0.0038,0.0042,0.0046,0,0,0,0,0,0,0,0,0,0,0,0,0,-0.0317,-0.0394,-0.027,-0.0223,-0.0217,-0.0148,-0.0147,-0.0145,-0.009,-0.009,-0.0089,-0.0089,0.0037,0.0042,0.0047,0.0075,0,0,0.0062,0.0064,0,0,0,0,0,0,0,0,-0.0321,-0.0313,-0.0231,-0.0226,-0.0219,-0.0132,-0.0144,-0.007,-0.009,-0.014,-0.0089,-0.0089,-0.0016,-0.0006,0.0013,0.0081,0.0086,0.0063,0.0066,0.0068,0.0069,0,0,0,0,0,0,0,-0.0327,-0.0317,-0.0224,-0.0229,-0.0222,-0.0187,-0.0177,-0.0129,-0.0082,-0.0136,-0.0131,-0.0114,-0.0013,0.0008,0.0016,0.0088,0.0063,0.0067,0.007,0.0072,0.0217,0.0218,0,0,0,0,0,0,-0.034,-0.0322,-0.0228,-0.022,-0.0268,-0.0185,-0.0173,-0.0162,-0.0083,-0.007,-0.0114,-0.0112,-0.0001,0.001,0.0021,0.0078,0.0068,0.0073,0.0075,0.0216,0.0217,0.0218,0,0,0,0,0,0,-0.0344,-0.0333,-0.0232,-0.0266,-0.0251,-0.0184,-0.0171,-0.016,-0.0138,-0.0066,-0.0053,-0.0104,-0.0,0.0014,0.0073,0.0082,0.0075,0.0079,0.0215,0.0216,0.0217,0.0179,0,0,0,0,0,0,-0.0348,-0.0336,-0.0338,-0.0267,-0.0249,-0.0197,-0.017,-0.0157,-0.0126,-0.0122,-0.0052,-0.004,0.0001,0.0065,0.0078,0.0089,0.0083,0.0214,0.0215,0.0217,0.0179,0.0179,0.0178,0,0,0,0,0,-0.0353,-0.0358,-0.0339,-0.0328,-0.0253,-0.0197,-0.0185,-0.0137,-0.0126,-0.0118,-0.0063,-0.0042,0.0084,0.007,0.0085,0.0098,0.0213,0.0215,0.0217,0.0179,0.0179,0.0178,0,0,0,0,0,0,-0.0419,-0.035,-0.0329,-0.0314,-0.0261,-0.0186,-0.0177,-0.0142,-0.0092,-0.0092,-0.0028,-0.0011,0.004,0.0077,0.006,0.0145,0.0151,0.0155,0.0117,0.0117,0.0117,0.0101,0.0087,0,0,0,0,0,-0.0434,-0.0419,-0.0345,-0.0336,-0.0313,-0.0247,-0.0221,-0.0186,-0.0128,-0.0107,-0.0053,0.0005,0.006,0.0094,0.0141,0.0192,0.0229,0.021,0.0209,0.0209,0.0207,0.0275,0.028,0.0224,0.0224,0.0224,0,0,-0.0459,-0.0418,-0.0412,-0.0349,-0.0309,-0.0276,-0.0232,-0.0196,-0.0164,-0.0101,-0.0051,0.0001,0.0071,0.0126,0.0153,0.016,0.0245,0.0211,0.021,0.0209,0.0277,0.0283,0.0288,0.0225,0.0225,0.0225,0,0,-0.0499,-0.0465,-0.0464,-0.042,-0.0358,-0.0308,-0.0299,-0.0223,-0.0187,-0.0128,-0.0075,-0.0012,0.0066,0.0129,0.0168,0.0197,0.0234,0.0206,0.0201,0.0266,0.0271,0.0276,0.0327,0.0337,0.0213,0.0213,0.0213,0,-0.0535,-0.0516,-0.0456,-0.0437,-0.0405,-0.0326,-0.0311,-0.0257,-0.017,-0.0132,-0.0122,0.0016,0.0071,0.0159,0.0169,0.0196,0.023,0.0194,0.0265,0.027,0.0276,0.0327,0.0338,0.0211,0.0212,0.0212,0.0212,0,-0.0562,-0.0547,-0.0543,-0.049,-0.0447,-0.0424,-0.0335,-0.0288,-0.0236,-0.0173,-0.0085,-0.0001,0.0084,0.0112,0.015,0.0223,0.0233,0.0248,0.026,0.0279,0.0332,0.0344,0.0209,0.021,0.021,0.0211,0,0,-0.0645,-0.0578,-0.0578,-0.0563,-0.0474,-0.0443,-0.038,-0.0295,-0.0249,-0.0164,-0.0097,0.0005,0.0055,0.0103,0.0166,0.0228,0.0298,0.0249,0.0253,0.0288,0.0432,0.0446,0.0461,0.0321,0.0323,0.0324,0.0451,0,-0.0688,-0.0685,-0.0621,-0.0603,-0.0594,-0.049,-0.0437,-0.0347,-0.026,-0.0173,-0.0064,0.0015,0.0053,0.0094,0.0164,0.0268,0.0328,0.0261,0.0418,0.0422,0.0425,0.0476,0.0448,0.0559,0.0463,0.0465,0.0467,0,-0.0732,-0.0725,-0.0729,-0.0661,-0.0644,-0.0611,-0.0506,-0.0444,-0.0294,-0.0226,-0.0117,-0.0024,0.0099,0.0115,0.0296,0.0249,0.0331,0.0404,0.0412,0.0447,0.046,0.0528,0.0585,0.0488,0.0486,0.0484,0.0483,0,-0.0835,-0.0793,-0.0804,-0.0783,-0.0694,-0.0665,-0.0608,-0.0472,-0.041,-0.0257,-0.0191,-0.0037,0.0055,0.0174,0.0337,0.0317,0.0529,0.0523,0.0615,0.0617,0.0636,0.0636,0.0641,0.0641,0.064,0.064,0.064,0,-0.0908,-0.0912,-0.0857,-0.0866,-0.0857,-0.0759,-0.0712,-0.0623,-0.0488,-0.0391,-0.0237,-0.0115,0.0073,0.0231,0.0344,0.0528,0.054,0.0627,0.066,0.0622,0.0619,0.0587,0.0579,0.0645,0.0644,0.0643,0.0642,0,-0.101,-0.098,-0.0986,-0.0926,-0.091,-0.0904,-0.0799,-0.075,-0.0614,-0.0479,-0.0429,-0.0169,0.0059,0.0241,0.0471,0.0549,0.0709,0.0766,0.0703,0.0725,0.0745,0.0734,0.0877,0.0879,0.088,0.0881,0.0882,0,-0.106,-0.1079,-0.1056,-0.1063,-0.1038,-0.1009,-0.0977,-0.0843,-0.0759,-0.0487,-0.0413,-0.0153,0.0095,0.0426,0.0599,0.0805,0.0792,0.0866,0.0823,0.0757,0.0774,0.0761,0.0748,0.0836,0.0836,0.0837,0.0837,0,-0.1142,-0.1133,-0.1139,-0.1169,-0.1158,-0.1122,-0.1048,-0.0994,-0.0785,-0.0624,-0.0323,-0.01,0.0251,0.0532,0.0762,0.085,0.0826,0.0881,0.0865,0.0769,0.0726,0.074,0.0727,0.0841,0.0841,0.0841,0.0841,0.084,-0.1187,-0.122,-0.1231,-0.1243,-0.1238,-0.1184,-0.1104,-0.0967,-0.0793,-0.0421,-0.0271,0.0163,0.0364,0.0793,0.0849,0.089,0.0919,0.0923,0.0918,0.0914,0.0876,0.0837,0.0965,0.0966,0.0966,0.0966,0.0966,0,-0.1234,-0.1258,-0.1292,-0.1281,-0.1254,-0.1233,-0.1098,-0.0923,-0.0653,-0.0304,0.0027,0.0366,0.0634,0.0825,0.0918,0.0943,0.0884,0.0906,0.0842,0.084,0.0838,0.079,0.086,0.086,0.0859,0.0859,0,0,-0.1256,-0.13,-0.1313,-0.1273,-0.1243,-0.1109,-0.0996,-0.071,-0.0408,0.0025,0.0371,0.0678,0.0853,0.0886,0.0869,0.0891,0.0839,0.0853,0.0943,0.0865,0.0861,0.0862,0.079,0,0,0,0,0]}],[{"header":{"parameterUnit":"m.s-1","parameterCategory":2,"la1":30.2991,"la2":30.254,"lo1":-89.0895,"lo2":-89.0444,"dy":0.0017,"dx":0.0017,"nx":28,"ny":28,"refTime":"2024-04-10T21:00:00:Z","depth":"4","parameterNumber":2,"parameterNumberName":"U-component_of_CURRENTS"},"data":[0,0,0,0,0,0,0,0,0,0,0,0,0,0,0,0,0,0,0,0,0,0,0,0,0,0,0,0,0,0,0,0,0,0,0,0,0,0,0,0,0,0,0,0,0,0,0,0,0,0,0,0,0,0,0,0,0,0,-0.1789,-0.179,0,-0.1822,-0.1822,-0.1822,-0.1842,-0.1843,-0.1844,-0.1844,-0.1837,-0.1837,-0.1836,0,0,0,0,0,0,0,0,0,0,0,0,0,-0.1696,-0.1697,-0.1789,-0.179,-0.1791,-0.1822,-0.1822,-0.1822,-0.1842,-0.1843,-0.1844,-0.1844,-0.1837,-0.1837,-0.1836,0,0,0,0,0,0,0,0,0,0,0,0,0,-0.1729,-0.1698,-0.1789,-0.1808,-0.1811,-0.1822,-0.1822,-0.1822,-0.1842,-0.1843,-0.1844,-0.1845,-0.1838,-0.1837,-0.1836,-0.1813,0,0,-0.1832,-0.1832,0,0,0,0,0,0,0,0,-0.1727,-0.1732,-0.1805,-0.1807,-0.181,-0.1833,-0.1787,-0.1819,-0.1842,-0.1825,-0.1844,-0.1845,-0.1835,-0.1834,-0.1832,-0.1812,-0.1812,-0.1832,-0.1832,-0.1831,-0.1831,0,0,0,0,0,0,0,-0.1725,-0.173,-0.1798,-0.1806,-0.1809,-0.1799,-0.1804,-0.1792,-0.1821,-0.1827,-0.183,-0.184,-0.1835,-0.1833,-0.1832,-0.1812,-0.1832,-0.1832,-0.1831,-0.183,-0.1857,-0.1859,0,0,0,0,0,0,-0.1732,-0.1728,-0.1797,-0.1799,-0.1775,-0.1801,-0.1806,-0.1821,-0.1822,-0.1824,-0.184,-0.1841,-0.1834,-0.1833,-0.1832,-0.1895,-0.1831,-0.183,-0.183,-0.1856,-0.1858,-0.1859,0,0,0,0,0,0,-0.173,-0.1738,-0.1795,-0.1768,-0.1775,-0.1802,-0.1818,-0.1821,-0.1853,-0.1833,-0.1834,-0.1873,-0.1835,-0.1833,-0.1856,-0.1891,-0.183,-0.1829,-0.1854,-0.1857,-0.1858,-0.1963,0,0,0,0,0,0,-0.1727,-0.1737,-0.1759,-0.1769,-0.1777,-0.1828,-0.1818,-0.1822,-0.1859,-0.1862,-0.186,-0.1859,-0.1836,-0.1858,-0.1855,-0.1889,-0.1828,-0.1853,-0.1855,-0.1858,-0.1958,-0.1968,-0.1977,0,0,0,0,0,-0.1724,-0.1748,-0.176,-0.1769,-0.1804,-0.183,-0.1834,-0.1851,-0.186,-0.1881,-0.1885,-0.1861,-0.1872,-0.1859,-0.1855,-0.1889,-0.1852,-0.1855,-0.1858,-0.1953,-0.1966,-0.1977,0,0,0,0,0,0,-0.1715,-0.1753,-0.1767,-0.1801,-0.1828,-0.1836,-0.1859,-0.1872,-0.189,-0.19,-0.1878,-0.1877,-0.1905,-0.1883,-0.1869,-0.1903,-0.1857,-0.186,-0.1931,-0.1943,-0.1953,-0.194,-0.1827,0,0,0,0,0,-0.1725,-0.1756,-0.1786,-0.1815,-0.1834,-0.1853,-0.1871,-0.1886,-0.19,-0.1911,-0.1914,-0.1911,-0.1908,-0.1918,-0.1905,-0.1929,-0.1888,-0.1947,-0.1957,-0.1965,-0.1953,-0.1931,-0.1937,-0.1869,-0.1869,-0.1869,0,0,-0.173,-0.1755,-0.1773,-0.1817,-0.1837,-0.1871,-0.1866,-0.1905,-0.1936,-0.1905,-0.1952,-0.1943,-0.1919,-0.1944,-0.1955,-0.1938,-0.1967,-0.1969,-0.1977,-0.1959,-0.1935,-0.1941,-0.1947,-0.1871,-0.1871,-0.187,0,0,-0.1744,-0.178,-0.1809,-0.1841,-0.1887,-0.1901,-0.1924,-0.1958,-0.198,-0.202,-0.2002,-0.2019,-0.2026,-0.2015,-0.2008,-0.2062,-0.2013,-0.2069,-0.2117,-0.2098,-0.2103,-0.2107,-0.2076,-0.2076,-0.2082,-0.2082,-0.2082,0,-0.1749,-0.179,-0.1821,-0.1859,-0.1891,-0.1923,-0.1961,-0.1987,-0.2026,-0.2042,-0.2051,-0.206,-0.2053,-0.2064,-0.2091,-0.2084,-0.206,-0.2079,-0.211,-0.2113,-0.2115,-0.2082,-0.2081,-0.2087,-0.2087,-0.2086,-0.2085,0,-0.1775,-0.1825,-0.1847,-0.1907,-0.1945,-0.1985,-0.2029,-0.207,-0.2104,-0.2121,-0.2156,-0.2148,-0.2148,-0.2161,-0.2146,-0.2165,-0.2138,-0.212,-0.2081,-0.2128,-0.209,-0.2087,-0.2095,-0.2093,-0.2091,-0.209,0,0,-0.173,-0.1845,-0.1852,-0.1897,-0.1977,-0.2005,-0.2069,-0.212,-0.2154,-0.2196,-0.2224,-0.2242,-0.2238,-0.2228,-0.2217,-0.2214,-0.2224,-0.2187,-0.2184,-0.2156,-0.2177,-0.2001,-0.1981,-0.2219,-0.2219,-0.2219,-0.2149,0,-0.1738,-0.182,-0.1875,-0.1954,-0.2001,-0.2062,-0.2115,-0.2169,-0.2209,-0.2244,-0.2249,-0.227,-0.2264,-0.2274,-0.2271,-0.2227,-0.2219,-0.2244,-0.2133,-0.2129,-0.1967,-0.1972,-0.2218,-0.2146,-0.2145,-0.2144,-0.2144,0,-0.1729,-0.1792,-0.1876,-0.1987,-0.2013,-0.2067,-0.2149,-0.2201,-0.2256,-0.2286,-0.231,-0.2311,-0.2317,-0.2303,-0.2256,-0.2275,-0.2233,-0.22,-0.2197,-0.1986,-0.1946,-0.2084,-0.2137,-0.2138,-0.2138,-0.2139,-0.2139,0,-0.1661,-0.1783,-0.1854,-0.1894,-0.2023,-0.2072,-0.2135,-0.2211,-0.2245,-0.2309,-0.2324,-0.2339,-0.2328,-0.2296,-0.223,-0.2254,-0.2151,-0.2171,-0.1971,-0.1959,-0.2094,-0.2091,-0.2126,-0.2127,-0.2127,-0.2127,-0.2127,0,-0.1628,-0.1685,-0.1836,-0.1872,-0.1939,-0.2051,-0.2112,-0.2174,-0.2251,-0.2258,-0.2334,-0.2306,-0.2327,-0.2269,-0.2225,-0.2059,-0.2142,-0.1956,-0.1919,-0.2142,-0.2145,-0.2092,-0.2089,-0.2124,-0.2125,-0.2125,-0.2126,0,-0.1529,-0.1641,-0.1718,-0.1866,-0.1909,-0.1953,-0.2079,-0.2114,-0.2213,-0.2218,-0.2238,-0.2277,-0.2188,-0.2166,-0.2089,-0.2014,-0.1906,-0.1829,-0.205,-0.203,-0.1739,-0.1743,-0.1613,-0.1606,-0.1601,-0.1596,-0.1591,0,-0.1484,-0.1523,-0.167,-0.1706,-0.1775,-0.1866,-0.1916,-0.2059,-0.2085,-0.2153,-0.2123,-0.2095,-0.2081,-0.1815,-0.184,-0.1725,-0.1702,-0.1667,-0.1723,-0.1704,-0.1683,-0.1696,-0.1707,-0.1582,-0.158,-0.1579,-0.1577,0,-0.1372,-0.1438,-0.1492,-0.1561,-0.1631,-0.1687,-0.1774,-0.1774,-0.1903,-0.203,-0.1918,-0.1853,-0.1736,-0.1662,-0.1572,-0.1505,-0.1709,-0.1606,-0.1619,-0.1672,-0.1665,-0.1652,-0.167,-0.1557,-0.156,-0.1562,-0.1563,0,-0.1263,-0.1266,-0.1337,-0.1379,-0.1456,-0.1454,-0.1535,-0.1554,-0.1596,-0.171,-0.1656,-0.1625,-0.168,-0.1542,-0.1459,-0.1371,-0.1366,-0.1353,-0.138,-0.1403,-0.1367,-0.133,-0.1062,0,0,0,0,0,-0.1138,-0.1123,-0.1149,-0.117,-0.1237,-0.1265,-0.1406,-0.15,-0.164,-0.1502,-0.1575,-0.1455,-0.1331,-0.1337,-0.1193,-0.1367,-0.1373,-0.1202,-0.1375,-0.1443,-0.1467,-0.1444,0,0,0,0,0,0,-0.1053,-0.1066,-0.1077,-0.0975,-0.0943,-0.0981,-0.1054,-0.1162,-0.1114,-0.1266,-0.1194,-0.1333,-0.1223,-0.1325,-0.1131,-0.1137,-0.1214,-0.1225,-0.1221,-0.1429,-0.1451,-0.147,-0.1455,0,0,0,0,0]},{"header":{"parameterUnit":"m.s-1","parameterCategory":2,"la1":30.2991,"la2":30.254,"lo1":-89.0895,"lo2":-89.0444,"dy":0.0017,"dx":0.0017,"nx":28,"ny":28,"refTime":"2024-04-10T21:00:00:Z","depth":"4","parameterNumber":3,"parameterNumberName":"V-component_of_CURRENTS"},"data":[0,0,0,0,0,0,0,0,0,0,0,0,0,0,0,0,0,0,0,0,0,0,0,0,0,0,0,0,0,0,0,0,0,0,0,0,0,0,0,0,0,0,0,0,0,0,0,0,0,0,0,0,0,0,0,0,0,0,-0.0188,-0.0187,0,-0.0109,-0.0108,-0.0107,-0.0069,-0.0069,-0.0069,-0.0068,0.0026,0.0029,0.0031,0,0,0,0,0,0,0,0,0,0,0,0,0,-0.0251,-0.025,-0.0188,-0.0187,-0.0185,-0.0109,-0.0108,-0.0107,-0.0069,-0.0069,-0.0069,-0.0068,0.0025,0.0028,0.0031,0,0,0,0,0,0,0,0,0,0,0,0,0,-0.0204,-0.025,-0.0188,-0.0156,-0.0153,-0.0109,-0.0108,-0.0107,-0.0069,-0.0069,-0.0069,-0.0068,0.0024,0.0028,0.0032,0.0051,0,0,0.0043,0.0044,0,0,0,0,0,0,0,0,-0.0207,-0.0202,-0.0162,-0.0158,-0.0154,-0.0097,-0.0095,-0.0053,-0.0069,-0.0102,-0.0068,-0.0068,-0.0013,-0.0006,0.0006,0.0055,0.0059,0.0043,0.0045,0.0047,0.0048,0,0,0,0,0,0,0,-0.021,-0.0205,-0.0158,-0.0161,-0.0156,-0.0127,-0.0121,-0.0087,-0.006,-0.0099,-0.0096,-0.0085,-0.0011,0.0003,0.0009,0.0061,0.0043,0.0046,0.0048,0.005,0.0158,0.0159,0,0,0,0,0,0,-0.022,-0.0208,-0.016,-0.0155,-0.0179,-0.0127,-0.012,-0.0117,-0.006,-0.0052,-0.0085,-0.0084,-0.0004,0.0004,0.0012,0.0057,0.0047,0.005,0.0052,0.0157,0.0158,0.0159,0,0,0,0,0,0,-0.0222,-0.0217,-0.0163,-0.0178,-0.0169,-0.0126,-0.0123,-0.0115,-0.0102,-0.005,-0.0041,-0.0079,-0.0003,0.0007,0.005,0.006,0.0052,0.0055,0.0157,0.0158,0.0159,0.0134,0,0,0,0,0,0,-0.0225,-0.0219,-0.0225,-0.0179,-0.0169,-0.0143,-0.0122,-0.0114,-0.0095,-0.0092,-0.0042,-0.0033,-0.0002,0.0044,0.0054,0.0065,0.0058,0.0156,0.0157,0.0158,0.0134,0.0134,0.0134,0,0,0,0,0,-0.0227,-0.0237,-0.0226,-0.022,-0.0178,-0.0143,-0.0136,-0.0104,-0.0095,-0.0092,-0.005,-0.0035,0.0059,0.0048,0.0059,0.0071,0.0155,0.0157,0.0158,0.0134,0.0134,0.0134,0,0,0,0,0,0,-0.0271,-0.0232,-0.022,-0.0219,-0.0186,-0.0136,-0.0133,-0.0108,-0.0073,-0.0073,-0.0024,-0.0012,0.0026,0.0054,0.004,0.0107,0.0109,0.0113,0.0087,0.0088,0.0088,0.0074,0.0061,0,0,0,0,0,-0.0284,-0.0283,-0.0236,-0.0238,-0.0224,-0.018,-0.0164,-0.014,-0.01,-0.0086,-0.0046,-0.0002,0.0041,0.0067,0.0102,0.0142,0.0169,0.0157,0.0157,0.0157,0.0153,0.0212,0.0217,0.0164,0.0164,0.0164,0,0,-0.0304,-0.0282,-0.0282,-0.0247,-0.0222,-0.0203,-0.0171,-0.0151,-0.0129,-0.008,-0.0046,-0.0006,0.005,0.0093,0.0113,0.0119,0.0186,0.0159,0.0158,0.0155,0.0214,0.0219,0.0224,0.0165,0.0165,0.0165,0,0,-0.0337,-0.0322,-0.0328,-0.0301,-0.0264,-0.023,-0.0225,-0.0175,-0.0149,-0.0108,-0.0065,-0.0014,0.0042,0.0095,0.0127,0.0151,0.0178,0.0158,0.0156,0.0213,0.0218,0.0222,0.0256,0.0264,0.0166,0.0166,0.0166,0,-0.0364,-0.0362,-0.0325,-0.0317,-0.0299,-0.0244,-0.0239,-0.02,-0.014,-0.0112,-0.0105,0.0003,0.0046,0.0121,0.013,0.0151,0.0177,0.0149,0.0212,0.0218,0.0223,0.0257,0.0265,0.0165,0.0165,0.0165,0.0165,0,-0.0391,-0.039,-0.0392,-0.0363,-0.0337,-0.0326,-0.0264,-0.0232,-0.0195,-0.0147,-0.0079,-0.001,0.0056,0.0082,0.0114,0.0178,0.0182,0.0198,0.0208,0.0226,0.0261,0.027,0.0163,0.0164,0.0164,0.0164,0,0,-0.045,-0.0419,-0.0422,-0.0417,-0.0362,-0.0344,-0.0301,-0.0241,-0.0209,-0.0144,-0.0093,-0.0007,0.0034,0.0073,0.0129,0.0185,0.0243,0.0202,0.0206,0.0228,0.0352,0.0312,0.0318,0.0269,0.0271,0.0272,0.0359,0,-0.0485,-0.0498,-0.0459,-0.0458,-0.0458,-0.0388,-0.0353,-0.0288,-0.0224,-0.0159,-0.0066,-0.0005,0.0032,0.0066,0.013,0.0216,0.0268,0.0216,0.0338,0.0341,0.0297,0.0328,0.0278,0.0367,0.0369,0.0371,0.0372,0,-0.0519,-0.0525,-0.0543,-0.051,-0.0502,-0.0487,-0.0418,-0.0376,-0.0262,-0.021,-0.0121,-0.0044,0.0062,0.0081,0.0234,0.0198,0.0267,0.033,0.0335,0.0311,0.0319,0.0349,0.0389,0.0388,0.0387,0.0385,0.0384,0,-0.0587,-0.0577,-0.06,-0.059,-0.0543,-0.0532,-0.0499,-0.0402,-0.0358,-0.024,-0.0192,-0.006,0.0013,0.012,0.0255,0.0246,0.0413,0.042,0.0449,0.0447,0.0467,0.0461,0.052,0.052,0.0519,0.0519,0.0519,0,-0.0633,-0.065,-0.064,-0.0654,-0.0668,-0.0606,-0.0589,-0.0525,-0.0428,-0.0362,-0.0232,-0.0142,0.0027,0.0154,0.0255,0.0379,0.0416,0.045,0.0472,0.0453,0.0445,0.0473,0.0466,0.0522,0.0522,0.0521,0.052,0,-0.0692,-0.0691,-0.0717,-0.0704,-0.0705,-0.0713,-0.0664,-0.0634,-0.0537,-0.0443,-0.0404,-0.0198,-0.0023,0.0134,0.0328,0.0375,0.0499,0.0533,0.0492,0.051,0.049,0.0482,0.0566,0.0566,0.0565,0.0565,0.0565,0,-0.0717,-0.0742,-0.0772,-0.0797,-0.0796,-0.0801,-0.0795,-0.0708,-0.0653,-0.0462,-0.0408,-0.0212,-0.0068,0.0189,0.0329,0.0505,0.0524,0.0557,0.053,0.0485,0.0498,0.049,0.0483,0.0564,0.0564,0.0564,0.0563,0,-0.0757,-0.0777,-0.0801,-0.0863,-0.0885,-0.0885,-0.0858,-0.0821,-0.0683,-0.0613,-0.0371,-0.0197,0.0002,0.0205,0.0339,0.0464,0.0517,0.0552,0.0554,0.0528,0.0483,0.0495,0.0488,0.0562,0.0562,0.0562,0.0562,0,-0.0779,-0.0814,-0.0858,-0.0895,-0.0935,-0.0921,-0.0909,-0.0798,-0.0721,-0.0494,-0.0418,-0.0164,-0.0009,0.0185,0.0313,0.0423,0.044,0.0441,0.0449,0.0452,0.0382,0.0305,0.0353,0,0,0,0,0,-0.0788,-0.0824,-0.0877,-0.0906,-0.0943,-0.0939,-0.0914,-0.0876,-0.0753,-0.0587,-0.0485,-0.0279,-0.0018,0.0116,0.0223,0.025,0.0409,0.0368,0.04,0.0552,0.0554,0.0486,0,0,0,0,0,0,-0.0795,-0.0854,-0.0876,-0.0895,-0.0899,-0.0909,-0.088,-0.0805,-0.0687,-0.0552,-0.0394,-0.0288,-0.003,-0.0058,0.0228,0.0261,0.0282,0.0502,0.0503,0.0551,0.0553,0.0554,0.0485,0,0,0,0,0]}]]